| time (UTC) | temp C | wind direction | speed KPH | gust KPH | rain 1hr cm | rain 24hr cm | rain mn cm | humidity % | barometer mb |
| 20260902064821 | 15 | 141 | 0.0 | 0.0 | 0.00 | 1.52 | 0.00 | 94 | 1020.2 |
| 20260902063817 | 15 | 141 | 0.0 | 0.0 | 0.00 | 1.52 | 0.00 | 94 | 1020.3 |
| 20260902062817 | 15 | 141 | 0.0 | 0.0 | 0.00 | 1.52 | 0.00 | 94 | 1020.3 |
| 20260902061817 | 15 | 141 | 0.0 | 0.0 | 0.00 | 1.52 | 0.00 | 94 | 1020.3 |
| 20260902060818 | 15 | 141 | 0.0 | 0.0 | 0.00 | 1.52 | 0.00 | 94 | 1020.3 |
| 20260902055817 | 15 | 141 | 0.0 | 0.0 | 0.00 | 1.52 | 0.00 | 94 | 1020.3 |
| 20260902054818 | 15 | 141 | 0.0 | 0.0 | 0.00 | 1.52 | 0.00 | 94 | 1020.3 |
| 20260902053813 | 15 | 141 | 0.0 | 0.0 | 0.00 | 1.52 | 0.00 | 94 | 1020.2 |
| 20260902052811 | 15 | 141 | 0.0 | 0.0 | 0.00 | 1.52 | 0.00 | 94 | 1020.2 |
| 20260902051811 | 15 | 141 | 0.0 | 0.0 | 0.00 | 1.52 | 0.00 | 94 | 1020.2 |
| 20260902050812 | 15 | 141 | 0.0 | 0.0 | 0.00 | 1.52 | 0.00 | 94 | 1019.8 |
| 20260902045809 | 15 | 141 | 0.0 | 0.0 | 0.00 | 1.52 | 0.00 | 94 | 1019.7 |
| 20260902044807 | 15 | 141 | 0.0 | 0.0 | 0.00 | 1.52 | 0.00 | 94 | 1019.7 |
| 20260902043809 | 15 | 141 | 0.0 | 0.0 | 0.00 | 1.52 | 0.00 | 94 | 1019.3 |
| 20260902042808 | 15 | 141 | 0.0 | 0.0 | 0.00 | 1.52 | 0.00 | 94 | 1019.4 |
| 20260902041807 | 15 | 141 | 0.0 | 0.0 | 0.00 | 1.52 | 0.00 | 94 | 1019.4 |
| 20260902040807 | 15 | 141 | 0.0 | 0.0 | 0.00 | 1.52 | 0.00 | 94 | 1019.2 |
| 20260902040248 | 15 | 141 | 0.0 | 0.0 | 0.00 | 1.52 | 1.52 | 94 | 1018.7 |
| 20260902034802 | 15 | 141 | 0.0 | 0.0 | 0.00 | 1.52 | 1.52 | 94 | 1018.7 |
| 20260902033803 | 15 | 141 | 0.0 | 0.0 | 0.00 | 1.52 | 1.52 | 94 | 1018.6 |
| 20260902032802 | 16 | 141 | 0.0 | 0.0 | 0.00 | 1.52 | 1.52 | 94 | 1018.7 |
| 20260902031802 | 16 | 141 | 0.0 | 0.0 | 0.00 | 1.52 | 1.52 | 94 | 1018.7 |
| 20260902031238 | 16 | 141 | 0.0 | 0.0 | 0.00 | 1.52 | 1.52 | 94 | 1018.8 |
| 20260902025800 | 16 | 141 | 0.0 | 0.0 | 0.00 | 1.52 | 1.52 | 94 | 1018.7 |
| 20260902024802 | 16 | 141 | 0.0 | 0.0 | 0.00 | 1.52 | 1.52 | 94 | 1018.7 |
| 20260902024734 | 16 | 141 | 0.0 | 0.0 | 0.00 | 1.52 | 1.52 | 94 | 1019.0 |
| 20260902023715 | 16 | 141 | 0.0 | 0.0 | 0.00 | 1.52 | 1.52 | 94 | 1019.1 |
| 20260902021801 | 16 | 141 | 0.0 | 0.0 | 0.00 | 1.52 | 1.52 | 94 | 1019.1 |
| 20260902020800 | 16 | 141 | 0.0 | 0.0 | 0.00 | 1.52 | 1.52 | 94 | 1019.1 |
| 20260902015750 | 16 | 141 | 0.0 | 0.0 | 0.00 | 1.52 | 1.52 | 94 | 1019.0 |
| 20260902014752 | 16 | 141 | 0.0 | 0.0 | 0.00 | 1.52 | 1.52 | 94 | 1019.0 |
| 20260902013751 | 16 | 141 | 0.0 | 0.0 | 0.00 | 1.52 | 1.52 | 94 | 1018.7 |
| 20260902013230 | 16 | 141 | 0.0 | 0.0 | 0.00 | 1.52 | 1.52 | 94 | 1018.7 |
| 20260902011754 | 16 | 141 | 0.0 | 0.0 | 0.00 | 1.52 | 1.52 | 94 | 1018.7 |
| 20260902010748 | 16 | 141 | 0.0 | 0.0 | 0.00 | 1.52 | 1.52 | 94 | 1018.9 |
| 20260902005746 | 16 | 141 | 0.0 | 0.0 | 0.00 | 1.52 | 1.52 | 94 | 1018.7 |
| 20260902004746 | 16 | 141 | 0.0 | 0.0 | 0.00 | 1.52 | 1.52 | 94 | 1018.7 |
| 20260902004232 | 16 | 141 | 0.0 | 0.0 | 0.00 | 1.52 | 1.52 | 93 | 1018.5 |
| 20260902002732 | 16 | 141 | 0.0 | 0.0 | 0.00 | 1.52 | 1.52 | 93 | 1018.3 |
| 20260902002209 | 16 | 141 | 0.0 | 0.0 | 0.00 | 1.52 | 1.52 | 94 | 1018.3 |
| 20260902000729 | 16 | 141 | 0.0 | 0.0 | 0.00 | 1.52 | 1.52 | 94 | 1018.2 |
| 20260901235726 | 16 | 141 | 0.0 | 0.0 | 0.00 | 1.52 | 1.52 | 94 | 1018.2 |
| 20260901235202 | 16 | 141 | 0.0 | 0.0 | 0.00 | 1.52 | 1.52 | 94 | 1018.2 |
| 20260901233724 | 16 | 141 | 0.0 | 0.0 | 0.00 | 1.52 | 1.52 | 94 | 1018.3 |
| 20260901232726 | 16 | 141 | 0.0 | 0.0 | 0.00 | 1.52 | 1.52 | 94 | 1018.4 |
| 20260901231724 | 16 | 141 | 0.0 | 0.0 | 0.00 | 1.52 | 1.52 | 94 | 1018.4 |
| 20260901230725 | 16 | 141 | 0.0 | 0.0 | 0.00 | 1.52 | 1.52 | 93 | 1018.2 |
| 20260901225724 | 16 | 141 | 0.0 | 0.0 | 0.00 | 1.52 | 1.52 | 93 | 1018.1 |
| 20260901224725 | 16 | 141 | 0.0 | 0.0 | 0.00 | 1.52 | 1.52 | 93 | 1018.1 |
| 20260901223725 | 16 | 141 | 0.0 | 0.0 | 0.00 | 1.52 | 1.52 | 93 | 1018.1 |
| 20260901222723 | 16 | 141 | 0.0 | 0.0 | 0.00 | 1.52 | 1.52 | 93 | 1018.2 |
| 20260901221713 | 16 | 141 | 0.0 | 0.0 | 0.00 | 1.52 | 1.52 | 93 | 1018.2 |
| 20260901221618 | 16 | 141 | 0.0 | 1.6 | 0.00 | 1.52 | 1.52 | 93 | 1018.1 |
| 20260901215713 | 16 | 141 | 0.0 | 1.6 | 0.03 | 1.52 | 1.52 | 93 | 1018.1 |
| 20260901215045 | 17 | 106 | 0.0 | 0.0 | 0.08 | 1.52 | 1.52 | 93 | 1017.8 |
| 20260901214712 | 16 | 141 | 0.0 | 8.0 | 0.03 | 1.52 | 1.52 | 93 | 1018.1 |
| 20260901213746 | 17 | 193 | 0.0 | 0.0 | 0.05 | 1.52 | 1.52 | 93 | 1017.8 |
| 20260901212154 | 17 | 156 | 0.0 | 4.8 | 0.10 | 1.52 | 1.52 | 93 | 1017.8 |
| 20260901210713 | 17 | 161 | 1.6 | 8.0 | 0.13 | 1.52 | 1.52 | 93 | 1017.7 |
| 20260901205703 | 17 | 173 | 1.6 | 9.7 | 0.13 | 1.50 | 1.50 | 93 | 1017.5 |
| 20260901204702 | 17 | 152 | 1.6 | 14.5 | 0.15 | 1.50 | 1.50 | 93 | 1017.5 |
| 20260901203702 | 17 | 112 | 0.0 | 4.8 | 0.15 | 1.47 | 1.47 | 93 | 1017.0 |
| 20260901202704 | 17 | 127 | 0.0 | 0.0 | 0.15 | 1.45 | 1.45 | 94 | 1017.0 |
| 20260901201702 | 17 | 41 | 0.0 | 3.2 | 0.18 | 1.42 | 1.42 | 93 | 1017.0 |
| 20260901200703 | 17 | 41 | 1.6 | 9.7 | 0.20 | 1.40 | 1.40 | 94 | 1017.0 |
| 20260901195652 | 18 | 91 | 0.0 | 4.8 | 0.23 | 1.37 | 1.37 | 94 | 1017.0 |
| 20260901194652 | 18 | 46 | 0.0 | 3.2 | 0.33 | 1.35 | 1.35 | 94 | 1017.0 |
| 20260901194129 | 17 | 47 | 0.0 | 6.4 | 0.51 | 1.32 | 1.32 | 93 | 1017.0 |
| 20260901192653 | 17 | 176 | 0.0 | 6.4 | 0.58 | 1.27 | 1.30 | 93 | 1017.0 |
| 20260901191652 | 17 | 150 | 0.0 | 3.2 | 0.71 | 1.24 | 1.24 | 93 | 1017.0 |
| 20260901190650 | 17 | 93 | 1.6 | 3.2 | 0.74 | 1.19 | 1.22 | 93 | 1017.0 |
| 20260901185651 | 17 | 48 | 1.6 | 6.4 | 0.71 | 1.14 | 1.17 | 93 | 1017.0 |
| 20260901184650 | 17 | 44 | 1.6 | 8.0 | 0.58 | 1.02 | 1.02 | 93 | 1017.0 |
| 20260901183650 | 17 | 15 | 1.6 | 4.8 | 0.38 | 0.81 | 0.84 | 93 | 1017.2 |
| 20260901182648 | 17 | 39 | 1.6 | 4.8 | 0.25 | 0.69 | 0.69 | 93 | 1017.2 |
| 20260901181647 | 17 | 28 | 0.0 | 4.8 | 0.10 | 0.53 | 0.53 | 93 | 1017.2 |
| 20260901181130 | 17 | 33 | 0.0 | 4.8 | 0.05 | 0.46 | 0.46 | 93 | 1017.0 |
| 20260901180137 | 17 | 47 | 0.0 | 0.0 | 0.03 | 0.43 | 0.43 | 93 | 1016.7 |
| 20260901174648 | 17 | 47 | 0.0 | 3.2 | 0.05 | 0.43 | 0.43 | 93 | 1016.7 |
| 20260901173647 | 17 | 52 | 0.0 | 4.8 | 0.10 | 0.43 | 0.43 | 93 | 1016.5 |
| 20260901172649 | 18 | 85 | 1.6 | 6.4 | 0.10 | 0.43 | 0.43 | 92 | 1016.6 |
| 20260901171649 | 18 | 67 | 1.6 | 6.4 | 0.10 | 0.43 | 0.43 | 92 | 1016.6 |
| 20260901170646 | 18 | 85 | 1.6 | 6.4 | 0.08 | 0.41 | 0.41 | 93 | 1016.5 |
| 20260901165645 | 18 | 43 | 0.0 | 0.0 | 0.08 | 0.41 | 0.41 | 93 | 1016.8 |
| 20260901164645 | 18 | 43 | 0.0 | 0.0 | 0.05 | 0.38 | 0.38 | 93 | 1016.8 |
| 20260901163646 | 18 | 43 | 0.0 | 4.8 | 0.00 | 0.33 | 0.33 | 93 | 1017.0 |
| 20260901162648 | 18 | 40 | 0.0 | 0.0 | 0.00 | 0.33 | 0.33 | 93 | 1017.0 |
| 20260901161635 | 18 | 23 | 1.6 | 4.8 | 0.00 | 0.33 | 0.33 | 93 | 1017.0 |
| 20260901160636 | 18 | 39 | 0.0 | 0.0 | 0.00 | 0.33 | 0.33 | 93 | 1016.6 |
| 20260901155635 | 18 | 39 | 0.0 | 0.0 | 0.00 | 0.33 | 0.33 | 93 | 1016.6 |
| 20260901154637 | 18 | 37 | 0.0 | 3.2 | 0.00 | 0.33 | 0.33 | 93 | 1016.6 |
| 20260901153637 | 18 | 38 | 1.6 | 4.8 | 0.00 | 0.33 | 0.33 | 93 | 1016.6 |
| 20260901153605 | 18 | 75 | 0.0 | 3.2 | 0.00 | 0.33 | 0.33 | 93 | 1016.7 |
| 20260901152540 | 18 | 47 | 0.0 | 0.0 | 0.00 | 0.33 | 0.33 | 93 | 1016.7 |
| 20260901150630 | 18 | 42 | 1.6 | 4.8 | 0.00 | 0.33 | 0.33 | 93 | 1017.0 |
| 20260901145634 | 19 | 41 | 0.0 | 4.8 | 0.00 | 0.33 | 0.33 | 93 | 1016.6 |
| 20260901144630 | 19 | 170 | 0.0 | 1.6 | 0.00 | 0.33 | 0.33 | 93 | 1016.6 |
| 20260901143627 | 18 | 171 | 0.0 | 1.6 | 0.00 | 0.33 | 0.33 | 93 | 1016.7 |
| 20260901142627 | 18 | 173 | 0.0 | 3.2 | 0.00 | 0.33 | 0.33 | 93 | 1016.8 |
| 20260901141627 | 18 | 184 | 0.0 | 1.6 | 0.00 | 0.33 | 0.33 | 93 | 1016.8 |
| 20260901141555 | 18 | 185 | 0.0 | 1.6 | 0.00 | 0.33 | 0.33 | 93 | 1016.7 |
| 20260901135624 | 18 | 185 | 0.0 | 0.0 | 0.03 | 0.33 | 0.33 | 93 | 1016.9 |
| 20260901134625 | 18 | 185 | 0.0 | 1.6 | 0.05 | 0.33 | 0.33 | 93 | 1016.9 |
| 20260901133620 | 18 | 185 | 0.0 | 0.0 | 0.08 | 0.33 | 0.33 | 93 | 1017.0 |
| 20260901133054 | 18 | 185 | 0.0 | 0.0 | 0.15 | 0.33 | 0.33 | 92 | 1017.2 |
| 20260901131615 | 18 | 185 | 0.0 | 1.6 | 0.23 | 0.33 | 0.33 | 92 | 1017.2 |
| 20260901130613 | 18 | 185 | 0.0 | 1.6 | 0.25 | 0.33 | 0.33 | 92 | 1017.3 |
| 20260901125614 | 18 | 185 | 0.0 | 1.6 | 0.25 | 0.30 | 0.30 | 92 | 1017.0 |
| 20260901124613 | 18 | 185 | 0.0 | 1.6 | 0.23 | 0.28 | 0.28 | 92 | 1017.0 |
| 20260901123613 | 18 | 185 | 0.0 | 0.0 | 0.20 | 0.25 | 0.25 | 91 | 1017.2 |
| 20260901122611 | 18 | 185 | 0.0 | 0.0 | 0.13 | 0.18 | 0.18 | 91 | 1017.5 |
| 20260901121613 | 18 | 185 | 0.0 | 0.0 | 0.03 | 0.08 | 0.10 | 91 | 1017.5 |
| 20260901121051 | 18 | 185 | 0.0 | 0.0 | 0.03 | 0.08 | 0.08 | 91 | 1017.3 |
| 20260901115608 | 18 | 185 | 0.0 | 0.0 | 0.00 | 0.05 | 0.05 | 91 | 1017.3 |
| 20260901114607 | 18 | 185 | 0.0 | 0.0 | 0.00 | 0.05 | 0.05 | 91 | 1017.3 |
| 20260901113606 | 18 | 185 | 0.0 | 0.0 | 0.00 | 0.05 | 0.05 | 91 | 1017.4 |
| 20260901113049 | 18 | 185 | 0.0 | 1.6 | 0.03 | 0.05 | 0.05 | 91 | 1017.0 |
| 20260901112039 | 18 | 185 | 0.0 | 0.0 | 0.03 | 0.05 | 0.05 | 90 | 1017.0 |
| 20260901110559 | 18 | 185 | 0.0 | 0.0 | 0.03 | 0.05 | 0.05 | 90 | 1017.0 |
| 20260901110036 | 18 | 185 | 0.0 | 0.0 | 0.03 | 0.05 | 0.05 | 90 | 1016.9 |
| 20260901104600 | 18 | 185 | 0.0 | 0.0 | 0.05 | 0.05 | 0.05 | 90 | 1016.9 |
| 20260901103559 | 18 | 185 | 0.0 | 0.0 | 0.05 | 0.05 | 0.05 | 90 | 1016.5 |
| 20260901103039 | 18 | 185 | 0.0 | 0.0 | 0.03 | 0.03 | 0.03 | 89 | 1016.5 |
| 20260901101601 | 18 | 185 | 0.0 | 0.0 | 0.03 | 0.03 | 0.03 | 89 | 1016.5 |
| 20260901101040 | 18 | 185 | 0.0 | 0.0 | 0.03 | 0.03 | 0.03 | 88 | 1016.5 |
| 20260901095555 | 18 | 185 | 0.0 | 0.0 | 0.03 | 0.03 | 0.03 | 88 | 1016.5 |
| 20260901094556 | 18 | 185 | 0.0 | 0.0 | 0.00 | 0.00 | 0.00 | 87 | 1016.5 |
| 20260901093557 | 18 | 185 | 0.0 | 0.0 | 0.00 | 0.00 | 0.00 | 87 | 1016.5 |
| 20260901093030 | 18 | 185 | 0.0 | 4.8 | 0.00 | 0.00 | 0.00 | 85 | 1016.5 |
| 20260901091552 | 18 | 179 | 0.0 | 4.8 | 0.00 | 0.00 | 0.00 | 84 | 1016.5 |
| 20260901090551 | 18 | 180 | 0.0 | 0.0 | 0.00 | 0.00 | 0.00 | 84 | 1016.4 |
| 20260901085549 | 18 | 181 | 0.0 | 0.0 | 0.00 | 0.00 | 0.00 | 84 | 1016.4 |
| 20260901084549 | 18 | 181 | 0.0 | 0.0 | 0.00 | 0.00 | 0.00 | 84 | 1016.4 |
| 20260901083548 | 18 | 181 | 0.0 | 3.2 | 0.00 | 0.00 | 0.00 | 84 | 1016.3 |
| 20260901083042 | 18 | 181 | 0.0 | 4.8 | 0.00 | 0.00 | 0.00 | 84 | 1016.4 |
| 20260901081546 | 18 | 183 | 0.0 | 0.0 | 0.00 | 0.00 | 0.00 | 84 | 1016.4 |
| 20260901080548 | 18 | 183 | 0.0 | 0.0 | 0.00 | 0.00 | 0.00 | 84 | 1016.4 |
| 20260901075538 | 18 | 184 | 0.0 | 6.4 | 0.00 | 0.00 | 0.00 | 84 | 1016.5 |
| 20260901074540 | 18 | 189 | 0.0 | 0.0 | 0.00 | 0.00 | 0.00 | 84 | 1016.5 |
| 20260901073540 | 18 | 189 | 0.0 | 0.0 | 0.00 | 0.00 | 0.00 | 84 | 1016.7 |
| 20260901072539 | 19 | 189 | 0.0 | 0.0 | 0.00 | 0.00 | 0.00 | 84 | 1016.8 |
| 20260901072020 | 19 | 189 | 0.0 | 0.0 | 0.00 | 0.00 | 0.00 | 84 | 1016.8 |
| 20260901070537 | 19 | 189 | 0.0 | 0.0 | 0.00 | 0.00 | 0.00 | 84 | 1017.0 |
| 20260901070026 | 19 | 189 | 0.0 | 0.0 | 0.00 | 0.00 | 0.00 | 84 | 1017.0 |